Temperature
12 11 10 11 12 12 13 13 12 13 13 12 12 12 13 13 13 13 13 12 12 11 10 10 10 10 10 10 10 10 10 10 10 10 10 10 10 10 10 10 10 10 10 10
11 10 11 12 12 12 12 12 12 12 13 12 12 12 13 13 13 13 13 12 12 11 10 10 10 9 9 9 9 9 9 9 9 9 9 9 9 9 9 9 9 9 9 9
10 10 11 12 11 12 12 11 11 11 11 12 11 11 12 13 13 13 13 12 12 11 10 10 9 9 9 9 9 9 9 9 9 9 8 8 8 8 8 8 8 9 9 9
10 10 11 11 11 11 10 11 11 10 10 10 11 9 12 12 12 12 12 12 12 11 11 10 9 9 9 9 9 9 9 8 8 8 8 8 7 7 7 8 8 8 8 8
9 10 10 10 10 10 10 11 10 10 10 9 11 10 11 12 11 11 11 12 11 11 10 10 9 9 9 9 8 8 8 8 8 8 7 7 7 7 7 7 7 7 7 7
9 9 9 9 10 10 10 10 10 10 9 9 11 10 11 12 12 12 12 12 12 11 10 9 9 9 8 8 8 8 8 8 8 7 7 7 7 6 7 7 7 7 7 7
9 9 9 9 9 10 10 9 8 9 9 10 12 11 11 13 13 12 12 12 11 10 10 9 9 8 8 8 8 8 7 7 7 7 7 7 6 6 6 6 6 6 6 6
9 8 9 9 9 9 9 9 8 9 9 10 11 10 11 12 12 12 12 11 11 10 9 9 9 8 8 7 7 7 7 7 7 7 6 6 6 6 6 6 6 6 6 6
8 8 9 9 9 9 9 9 9 8 9 9 10 12 12 12 11 11 11 11 10 10 9 9 8 8 7 7 7 7 7 6 6 6 6 6 6 6 5 5 5 5 5 6
9 7 9 9 9 8 8 9 8 8 8 9 11 12 11 11 10 10 10 10 10 10 9 8 8 8 7 7 7 6 6 6 6 6 6 5 5 5 5 5 5 5 5 5
8 7 8 8 8 8 8 8 8 8 8 8 9 10 12 11 11 10 10 11 10 10 9 8 8 7 7 7 6 6 6 6 6 6 5 5 5 5 4 4 4 4 4 4
8 7 6 8 9 8 8 9 8 7 8 8 7 8 12 11 11 11 10 10 10 9 9 8 8 7 7 6 6 6 6 6 6 5 5 5 4 4 4 4 4 4 4 4
8 7 6 7 7 7 7 8 8 8 7 6 7 8 11 10 10 10 10 10 9 9 8 8 7 7 7 6 6 6 5 5 5 5 5 4 4 4 3 3 3 3 3 3
8 6 6 7 8 7 7 7 7 6 5 6 7 8 10 10 10 10 10 9 9 9 8 8 7 7 6 6 6 5 5 5 5 4 4 4 3 3 3 3 3 3 3 3
7 5 6 7 8 8 7 7 7 6 6 6 7 8 9 9 9 10 10 9 9 8 8 7 7 6 6 6 5 5 5 5 4 4 4 3 3 3 3 3 3 3 3 3
6 5 6 6 7 7 6 7 7 6 7 7 7 7 9 10 10 9 9 8 8 8 7 7 6 6 6 5 5 5 5 4 4 4 3 3 3 3 3 3 2 2 2 2
5 5 5 5 7 6 5 7 7 7 7 7 6 7 9 8 8 8 8 8 7 7 7 6 6 5 5 5 5 5 4 4 4 3 3 3 3 2 2 2 2 2 2 2
5 5 4 5 5 5 8 9 9 8 8 8 7 8 8 8 8 8 8 7 7 6 6 6 5 5 5 5 4 4 4 4 3 3 3 3 2 2 2 2 2 2 2 1
5 5 4 4 5 6 8 8 8 7 7 7 7 7 8 8 7 7 7 7 6 6 5 5 5 5 5 4 4 4 3 3 3 3 3 2 2 2 2 2 2 1 1 1
4 4 4 4 4 5 8 7 8 7 6 7 7 7 7 7 5 5 6 6 6 5 5 5 5 5 4 4 4 3 3 3 3 3 2 2 2 2 2 1 1 1 1 1
3 3 3 3 4 5 7 7 7 6 6 7 7 7 7 6 5 6 6 5 5 5 5 4 4 4 4 4 3 3 3 3 3 2 2 2 2 1 1 1 1 1 1 0
3 3 3 3 3 5 6 6 5 6 7 7 7 6 6 6 6 5 5 5 4 4 4 4 4 4 3 3 3 3 3 3 2 2 2 2 1 1 1 1 1 0 0 0
5 5 4 4 5 7 7 7 7 7 7 6 6 6 5 5 5 5 4 4 4 4 4 3 3 3 3 3 3 3 3 2 2 2 2 1 1 1 1 0 0 -0 -0 -0
6 6 5 5 5 7 7 7 7 7 6 6 6 5 5 5 4 4 4 4 3 3 3 3 3 2 3 3 3 2 2 2 2 2 1 1 1 1 1 0 -0 -0 -0 -0
5 5 4 4 5 6 7 7 7 6 6 5 5 5 4 4 4 3 3 3 3 3 2 2 2 2 2 2 2 2 2 2 2 1 1 1 1 0 0 0 -0 -0 -0 -1
4 4 4 4 5 5 6 6 6 5 5 4 4 4 4 4 3 3 3 3 2 2 2 2 2 2 2 2 2 2 2 2 1 1 1 1 0 0 0 -0 -0 -0 -1 -1
Wind_Speed
0 0 0 1 2 4 2 2 2 1 1 2 5 6 6 6 7 7 7 7 6 6 5 6 5 5 3 2 2 2 2 3 3 3 3 3 3 4 3 3 5 6 7 7
0 1 2 2 3 4 3 2 2 1 1 2 5 7 7 7 7 7 7 8 8 7 6 5 5 4 3 2 1 1 1 2 3 3 3 2 3 3 3 4 5 6 7 7
1 2 2 2 2 3 2 2 1 3 4 4 3 5 6 5 6 6 6 6 7 7 6 5 4 4 3 2 1 0 1 2 2 3 2 3 3 3 3 4 4 5 6 6
2 2 2 1 3 3 3 4 2 3 3 2 2 4 5 7 7 8 8 7 7 6 6 5 5 4 3 2 1 0 0 1 1 2 2 3 3 3 4 4 4 5 6 6
1 2 2 2 3 4 2 4 2 3 4 3 4 4 5 7 7 9 9 9 8 7 6 6 5 4 3 2 2 1 1 1 1 2 2 3 3 3 4 4 5 5 4 4
0 1 2 3 3 2 3 3 4 3 1 4 6 5 4 5 7 7 9 8 8 7 6 5 5 4 3 3 2 1 1 1 1 2 2 3 4 4 5 5 5 5 4 4
0 1 1 1 2 1 2 2 2 1 2 5 2 3 6 2 4 5 6 7 7 7 6 5 5 4 3 3 2 2 1 1 1 2 2 3 4 4 4 5 5 5 4 4
2 1 2 0 2 2 2 1 0 2 3 2 1 5 4 4 5 5 5 5 5 6 5 5 5 4 3 3 3 2 1 1 1 1 2 2 3 3 3 4 4 4 4 4
2 1 2 0 2 2 2 1 1 1 3 3 5 4 2 5 5 5 5 5 5 5 5 5 5 4 4 3 3 2 2 2 1 1 2 3 3 3 4 4 4 4 4 4
3 2 1 2 2 2 3 4 1 1 2 4 5 5 3 5 5 5 5 5 5 4 5 5 4 4 4 3 3 3 3 2 1 1 2 3 3 4 4 4 4 4 5 5
2 1 2 2 4 4 3 2 3 3 3 3 4 3 3 4 4 4 4 3 4 4 4 4 4 4 3 3 3 3 3 2 1 1 2 2 3 3 3 3 4 4 5 5
1 1 3 4 1 1 2 4 3 3 4 4 3 5 2 5 5 3 2 2 2 2 3 3 3 3 3 3 3 3 3 2 2 1 1 2 3 3 3 4 4 4 5 4
2 1 3 2 1 1 3 4 5 4 3 4 4 6 2 4 3 2 1 2 2 3 3 3 3 3 4 4 3 3 3 3 2 1 2 2 3 3 3 4 4 5 5 4
2 3 5 5 3 2 5 6 7 6 5 6 9 10 7 5 3 3 2 2 2 2 2 3 3 3 4 4 4 4 3 3 2 2 2 3 3 3 3 4 4 5 4 4
2 5 6 10 11 10 11 12 10 12 11 10 9 11 11 8 6 5 3 3 3 3 3 3 3 4 4 4 4 4 4 3 3 3 3 3 3 3 3 4 4 4 3 3
3 4 5 8 10 11 14 14 15 14 14 15 15 17 12 8 5 4 3 3 4 4 4 4 4 4 4 4 4 4 4 3 3 3 3 3 2 3 3 4 4 3 3 3
4 3 3 5 5 7 10 12 14 9 9 10 14 13 6 5 4 4 3 4 4 4 4 4 4 4 4 4 4 4 4 3 3 3 3 3 3 3 3 3 3 3 3 3
5 4 3 5 5 8 7 1 4 8 9 10 9 8 6 5 4 3 3 3 4 4 4 4 4 3 3 3 3 4 3 3 4 4 3 3 3 3 3 3 4 3 3 3
7 6 4 3 6 9 6 3 2 4 5 6 8 8 6 2 3 3 2 1 2 4 4 4 3 3 3 3 3 3 4 4 4 4 4 4 3 3 3 3 4 3 2 3
3 5 5 5 5 7 3 2 3 1 5 3 2 3 2 1 3 4 1 2 3 4 3 4 3 3 3 4 3 4 5 5 6 5 5 4 3 3 3 4 3 2 2 3
4 5 8 9 7 8 4 4 4 2 4 1 2 3 2 3 4 4 4 4 4 4 4 4 4 4 4 4 4 5 5 6 6 4 3 3 3 4 3 3 2 2 2 2
8 7 8 7 7 9 4 5 5 5 2 2 3 3 4 5 5 5 5 5 5 5 5 4 4 5 4 4 5 6 6 5 4 3 4 4 4 3 3 3 3 2 2 2
8 9 6 8 9 5 5 5 5 3 4 4 4 4 5 6 7 7 6 6 6 6 5 4 5 5 5 5 5 6 6 4 4 4 4 4 4 3 3 3 3 2 2 2
6 6 6 7 9 7 7 6 6 5 5 5 5 5 6 7 8 7 7 6 6 6 5 5 5 6 5 5 5 6 5 4 4 5 4 4 4 3 3 3 3 2 3 3
7 4 7 11 10 9 9 7 6 5 4 5 6 6 6 7 8 7 7 6 6 5 5 5 5 6 6 5 5 5 4 4 5 5 4 4 4 4 3 3 3 4 4 4
9 10 11 13 9 8 8 6 5 6 7 7 7 7 7 6 7 7 7 6 6 6 5 5 6 6 6 5 5 4 4 5 5 5 4 4 3 3 3 3 3 4 4 4
Wind_Direction
193 334 355 320 294 312 290 260 268 279 145 237 248 246 239 214 210 202 182 177 175 170 151 135 130 127 119 102 70 36 16 9 5 354 346 344 342 336 331 341 340 335 329 323
75 0 354 341 332 315 300 282 311 346 122 263 260 263 246 214 205 192 185 177 171 165 156 147 142 135 133 131 102 28 10 8 3 350 335 314 315 316 316 330 334 329 328 324
37 16 357 338 323 300 318 309 333 327 317 260 258 276 220 197 184 182 191 175 165 168 169 164 158 152 150 151 137 27 350 359 356 342 329 328 328 320 323 326 324 322 321 319
34 12 344 340 328 339 345 9 9 325 317 271 231 280 235 187 184 189 190 181 178 174 169 164 160 161 161 159 135 139 333 331 333 338 332 326 314 312 311 312 308 310 318 322
22 16 344 334 342 351 337 346 317 283 291 295 237 236 260 177 193 199 193 186 182 176 168 162 156 154 149 144 148 174 256 288 310 320 311 308 309 309 310 312 310 312 312 318
326 22 352 342 354 340 311 311 279 248 290 272 219 207 261 193 195 186 181 177 171 164 157 150 144 139 141 142 149 181 224 275 299 312 310 308 309 309 309 307 308 307 307 310
210 157 145 306 310 228 295 357 1 312 236 245 179 204 253 180 135 148 154 155 155 156 157 158 154 151 158 159 166 195 220 267 290 305 308 306 298 297 295 300 301 303 305 309
327 284 149 291 330 323 280 286 260 257 272 311 265 233 246 116 102 109 120 132 144 157 163 165 162 161 169 170 171 187 222 258 265 292 300 304 301 299 296 299 304 304 304 303
342 325 92 44 324 315 293 248 330 295 287 272 250 231 177 122 119 137 153 160 174 174 169 167 166 171 175 177 181 191 225 252 250 288 308 303 309 310 307 308 307 304 304 305
336 302 245 154 217 246 288 317 301 229 274 278 268 238 216 166 171 171 181 186 185 175 171 171 174 177 178 181 185 190 215 232 235 276 301 311 310 310 310 316 309 306 310 311
323 284 271 208 216 212 192 230 247 264 264 257 284 281 36 111 124 149 170 176 178 177 177 183 181 177 177 179 180 196 212 220 231 269 295 309 307 305 312 315 311 308 308 308
329 292 267 243 171 43 255 233 212 229 259 243 262 273 63 90 97 102 118 135 147 165 184 191 189 182 186 191 196 205 210 212 219 241 274 287 295 303 309 308 309 312 311 306
328 250 293 262 183 186 252 253 253 265 281 248 241 256 144 125 136 152 180 195 205 206 209 208 199 198 201 202 207 211 211 210 210 216 252 273 283 290 296 302 307 311 308 306
306 256 229 242 261 246 247 245 235 226 228 245 236 253 261 263 276 277 269 256 256 237 229 224 222 218 214 208 207 211 213 202 203 219 244 261 271 281 293 302 305 308 304 307
228 256 257 267 277 275 262 253 237 232 230 237 254 260 269 276 281 279 263 263 270 266 254 246 246 240 231 222 213 208 206 198 204 220 239 255 265 277 293 296 298 302 301 305
228 261 281 273 258 258 263 253 243 242 242 247 262 271 270 276 274 273 272 271 273 272 269 266 262 260 249 238 226 214 208 203 201 220 237 253 263 276 282 289 299 295 293 297
213 232 267 269 278 295 265 242 227 223 223 227 244 253 271 275 269 266 271 275 271 272 272 268 260 256 257 242 223 215 210 202 204 220 235 243 252 265 272 287 299 283 280 289
223 229 248 277 299 253 242 203 202 222 237 232 246 261 269 271 280 287 278 278 285 286 281 271 260 256 253 242 223 208 197 201 211 222 235 241 250 262 271 280 286 276 279 276
219 220 242 253 265 273 264 231 202 230 265 244 248 262 274 311 319 289 255 254 287 290 284 274 267 262 247 234 217 200 203 207 213 225 233 236 241 254 264 271 274 265 270 275
228 223 232 241 251 255 261 111 79 61 272 296 290 284 297 317 283 274 330 321 296 293 288 282 275 266 251 238 210 201 210 213 220 225 228 231 231 238 250 260 262 254 258 261
178 205 221 235 249 263 264 141 122 193 248 4 358 313 297 255 252 280 311 302 283 278 277 275 267 256 246 236 214 214 220 226 226 216 213 222 227 233 244 253 258 247 243 253
188 194 205 207 228 251 192 147 195 235 288 302 302 300 291 285 288 294 298 293 288 281 275 268 263 258 248 230 217 224 232 231 213 202 209 219 223 229 236 240 247 232 218 234
207 205 207 210 226 248 190 218 247 282 288 288 291 296 284 283 285 285 284 283 279 275 272 268 262 263 253 233 216 227 236 217 202 202 212 220 219 221 221 225 238 239 220 222
236 226 248 262 261 267 265 264 267 267 273 285 286 283 279 275 279 283 283 282 279 275 271 269 266 264 260 244 228 229 226 201 197 209 216 214 214 225 224 226 229 229 224 223
250 241 254 264 272 280 267 261 267 277 281 283 282 275 271 273 276 279 283 283 282 280 275 264 260 261 261 254 240 227 210 191 200 212 217 217 216 219 223 225 232 231 231 224
239 240 248 260 264 265 275 280 282 275 268 265 268 275 272 264 268 273 276 277 279 279 276 271 267 265 262 256 249 231 207 194 199 214 217 213 212 215 218 221 248 251 240 248
Height
1491 1493 1494 1492 1490 1490 1489 1489 1491 1490 1488 1490 1490 1488 1485 1485 1486 1487 1489 1492 1494 1496 1498 1498 1499 1500 1500 1500 1500 1499 1498 1497 1496 1495 1494 1493 1493 1492 1492 1492 1491 1491 1490 1490
1493 1496 1493 1491 1490 1490 1490 1491 1491 1489 1488 1489 1489 1486 1482 1481 1482 1484 1486 1489 1492 1494 1496 1497 1497 1498 1498 1498 1498 1497 1497 1496 1495 1494 1492 1492 1490 1489 1489 1489 1488 1488 1487 1486
1495 1497 1494 1493 1493 1491 1491 1494 1494 1494 1491 1488 1490 1488 1480 1478 1479 1482 1484 1486 1489 1491 1493 1494 1495 1496 1496 1496 1496 1495 1495 1494 1493 1492 1491 1490 1488 1487 1486 1485 1485 1484 1484 1483
1497 1496 1495 1495 1495 1493 1496 1493 1493 1495 1497 1496 1492 1498 1481 1477 1478 1480 1482 1484 1487 1489 1491 1492 1493 1493 1494 1494 1493 1493 1492 1492 1491 1490 1488 1487 1486 1484 1483 1482 1481 1481 1480 1479
1499 1499 1498 1498 1497 1496 1497 1494 1495 1496 1497 1498 1491 1496 1483 1475 1478 1478 1479 1481 1484 1486 1488 1489 1490 1491 1491 1491 1491 1491 1490 1489 1488 1487 1486 1485 1484 1482 1481 1480 1478 1478 1477 1476
1500 1500 1500 1500 1498 1498 1497 1496 1495 1496 1499 1503 1488 1491 1484 1474 1472 1473 1475 1478 1481 1484 1486 1487 1488 1489 1489 1489 1489 1488 1487 1487 1486 1485 1484 1483 1481 1480 1478 1477 1475 1474 1473 1472
1500 1501 1501 1501 1500 1499 1499 1502 1505 1504 1503 1496 1481 1486 1482 1468 1467 1469 1473 1476 1479 1481 1483 1485 1485 1486 1486 1486 1486 1486 1485 1484 1483 1482 1481 1480 1478 1477 1475 1474 1472 1471 1469 1469
1503 1504 1502 1502 1502 1502 1501 1502 1508 1508 1501 1493 1485 1486 1476 1467 1467 1469 1472 1475 1478 1480 1481 1482 1483 1484 1484 1484 1484 1483 1482 1482 1481 1480 1479 1477 1476 1474 1472 1471 1469 1468 1466 1465
1504 1505 1502 1502 1502 1502 1501 1501 1500 1506 1501 1500 1488 1475 1469 1467 1469 1471 1473 1475 1477 1478 1479 1480 1481 1481 1482 1481 1481 1481 1480 1479 1478 1477 1475 1474 1473 1471 1470 1468 1466 1465 1463 1462
1504 1508 1502 1502 1503 1503 1503 1501 1503 1506 1505 1499 1483 1473 1474 1470 1470 1471 1472 1474 1476 1477 1478 1479 1479 1479 1479 1479 1479 1478 1477 1476 1475 1474 1472 1471 1469 1468 1466 1464 1463 1461 1459 1458
1504 1509 1505 1502 1502 1500 1503 1503 1502 1502 1500 1502 1495 1483 1467 1467 1467 1469 1471 1472 1474 1475 1476 1476 1477 1476 1476 1476 1476 1475 1474 1473 1472 1471 1469 1468 1466 1464 1463 1461 1459 1457 1456 1455
1505 1507 1508 1500 1497 1498 1498 1498 1500 1506 1501 1496 1498 1489 1467 1466 1467 1468 1470 1471 1472 1473 1473 1474 1474 1474 1473 1473 1472 1471 1471 1470 1469 1467 1466 1464 1463 1461 1459 1457 1456 1454 1452 1451
1505 1508 1510 1501 1503 1501 1500 1497 1497 1499 1501 1500 1498 1486 1467 1467 1467 1468 1469 1470 1470 1471 1471 1471 1471 1470 1470 1469 1469 1468 1467 1466 1465 1464 1462 1461 1459 1457 1455 1454 1452 1450 1448 1447
1506 1507 1508 1503 1496 1496 1498 1496 1496 1499 1504 1497 1488 1478 1469 1467 1467 1467 1467 1467 1468 1468 1468 1467 1467 1466 1466 1465 1465 1464 1463 1462 1461 1460 1459 1457 1456 1454 1452 1450 1448 1446 1445 1443
1505 1506 1500 1496 1492 1491 1491 1491 1491 1493 1491 1491 1479 1474 1467 1466 1466 1465 1465 1465 1465 1465 1464 1464 1463 1463 1462 1461 1460 1460 1459 1458 1458 1456 1455 1454 1452 1451 1449 1447 1445 1443 1442 1440
1503 1503 1500 1496 1489 1488 1486 1482 1482 1482 1481 1479 1475 1470 1463 1463 1462 1462 1462 1462 1462 1461 1461 1461 1460 1459 1458 1457 1456 1455 1455 1454 1453 1452 1451 1450 1449 1447 1445 1444 1442 1440 1439 1437
1501 1502 1501 1495 1485 1486 1483 1470 1470 1471 1468 1470 1470 1464 1460 1460 1460 1459 1459 1459 1459 1458 1458 1457 1456 1455 1454 1453 1452 1451 1451 1450 1449 1448 1447 1446 1445 1443 1442 1440 1438 1437 1436 1434
1498 1499 1500 1496 1491 1490 1467 1459 1458 1461 1460 1460 1459 1457 1457 1457 1457 1457 1456 1456 1456 1455 1454 1453 1452 1451 1450 1449 1448 1447 1446 1446 1445 1444 1443 1442 1441 1439 1438 1436 1435 1434 1433 1432
1493 1496 1497 1495 1490 1476 1462 1458 1458 1460 1459 1455 1455 1454 1454 1454 1454 1454 1454 1453 1453 1452 1451 1450 1448 1447 1446 1445 1444 1443 1442 1441 1441 1440 1439 1438 1437 1436 1434 1432 1431 1430 1430 1429
1491 1493 1497 1492 1489 1480 1460 1458 1456 1459 1461 1453 1452 1452 1452 1453 1456 1453 1451 1450 1449 1448 1447 1445 1444 1443 1442 1440 1440 1439 1438 1437 1436 1436 1435 1434 1433 1432 1430 1429 1428 1427 1427 1426
1493 1494 1494 1491 1485 1470 1458 1456 1458 1464 1458 1452 1451 1451 1451 1451 1451 1450 1448 1447 1446 1444 1443 1441 1440 1438 1437 1436 1435 1434 1433 1432 1432 1431 1431 1430 1429 1428 1427 1426 1425 1424 1423 1423
1482 1486 1485 1483 1482 1470 1455 1456 1458 1455 1451 1450 1449 1449 1449 1448 1447 1445 1444 1443 1441 1440 1438 1437 1435 1433 1432 1432 1431 1429 1429 1428 1428 1427 1426 1426 1425 1424 1423 1422 1421 1421 1420 1420
1470 1469 1468 1467 1461 1452 1451 1450 1450 1449 1448 1447 1446 1446 1445 1444 1442 1441 1440 1438 1437 1435 1434 1432 1430 1428 1427 1427 1426 1425 1425 1424 1423 1423 1422 1422 1421 1420 1420 1419 1418 1418 1417 1417
1460 1459 1459 1457 1450 1448 1447 1446 1446 1446 1445 1444 1443 1442 1441 1439 1438 1436 1435 1433 1432 1430 1428 1427 1425 1423 1422 1422 1421 1421 1420 1420 1419 1418 1418 1417 1417 1416 1416 1415 1415 1414 1414 1414
1456 1456 1456 1452 1447 1445 1443 1442 1442 1441 1440 1440 1439 1438 1437 1435 1433 1432 1430 1428 1426 1425 1423 1422 1420 1418 1417 1417 1416 1416 1416 1415 1414 1414 1413 1413 1413 1412 1412 1412 1412 1411 1411 1411
1450 1451 1451 1446 1442 1441 1438 1438 1438 1436 1435 1435 1434 1432 1431 1431 1429 1427 1425 1423 1421 1420 1418 1416 1415 1414 1413 1412 1411 1411 1411 1410 1410 1409 1409 1409 1409 1409 1408 1408 1408 1408 1408 1408